Cook, MN

5:11 PM CDT on March 23, 2017 (GMT -0500)
Cook Municipal

Weather History for KCQM - February, 2014

Change the Weather History Date:

Wednesday, February 26, 2014

  Actual Average Record
Temperature  
Mean Temperature -4 °F -  
Max Temperature 8 °F 26 °F 46 °F (2004)
Min Temperature -16 °F 6 °F -32 °F (2011)
Degree Days  
Heating Degree Days 69    
Moisture  
Dew Point -13 °F    
Average Humidity 68    
Maximum Humidity 84    
Minimum Humidity 47    
Precipitation  
Precipitation 0.00 in - - ()
Sea Level Pressure  
Sea Level Pressure 29.68 in    
Wind  
Wind Speed 11 mph (West)    
Max Wind Speed 22 mph    
Max Gust Speed 33 mph    
Visibility 6 miles    
Events Snow    
Averages and records for this station are not official NWS values.
T = Trace of Precipitation, MM = Missing Value Source: NWS Daily Summary

Daily Weather History Graph

Daily Weather History Graph

Search for Another Location

Airport or City:

Trip Planner

Search our weather history database for the weather conditions in past years. The results will help you decide how hot, cold, wet, or windy it might be!

Date:

Astronomy

Feb. 26, 2014 Rise Set
Actual Time 6:57 AM CST 5:50 PM CST
Civil Twilight 6:25 AM CST 6:22 PM CST
Nautical Twilight 5:50 AM CST 6:57 PM CST
Astronomical Twilight 5:14 AM CST 7:33 PM CST
Moon 4:53 AM CST (2/26) 2:57 PM CST (2/26)
Length of Visible Light 11h 56m
Length of Day
10h 53m
Waning Crescent, 10% of the Moon is Illuminated
Feb 26
Waning Crescent
Mar 1
New
Mar 8
First Quarter
Mar 16
Full
Mar 23
Last Quarter

Hourly Weather History & Observations

Time (CST) Temp. Windchill Dew Point Humidity Pressure Visibility Wind Dir Wind Speed Gust Speed Precip Events Conditions
12:15 AM -14.8 °F -32.2 °F -20.2 °F 77% 30.09 in 10.0 mi West 8.1 mph - N/A   Clear
12:35 AM -14.8 °F -30.8 °F -20.2 °F 77% 30.09 in 10.0 mi West 6.9 mph - N/A   Clear
12:55 AM -14.8 °F -30.8 °F -20.2 °F 77% 30.07 in 10.0 mi WSW 6.9 mph - N/A   Clear
1:15 AM -14.8 °F -30.8 °F -20.2 °F 77% 30.06 in 10.0 mi WSW 6.9 mph - N/A   Clear
1:35 AM -16.6 °F -34.4 °F -20.2 °F 84% 30.05 in 10.0 mi WSW 8.1 mph - N/A   Clear
1:55 AM -16.6 °F -34.4 °F -20.2 °F 84% 30.03 in 10.0 mi WSW 8.1 mph - N/A   Clear
2:15 AM -14.8 °F -29.1 °F -20.2 °F 77% 30.02 in 10.0 mi WSW 5.8 mph - N/A   Clear
2:35 AM -14.8 °F -30.8 °F -20.2 °F 77% 29.99 in 10.0 mi SW 6.9 mph - N/A   Scattered Clouds
2:55 AM -14.8 °F -30.8 °F -20.2 °F 77% 29.96 in 10.0 mi SSW 6.9 mph - N/A   Overcast
3:15 AM -14.8 °F -32.2 °F -20.2 °F 77% 29.95 in 10.0 mi SW 8.1 mph - N/A   Overcast
3:35 AM -13.0 °F -27.0 °F -18.4 °F 77% 29.93 in 10.0 mi SW 5.8 mph - N/A   Overcast
3:55 AM -13.0 °F -28.6 °F -18.4 °F 77% 29.90 in 10.0 mi SW 6.9 mph - N/A   Overcast
4:15 AM -11.2 °F -20.6 °F -18.4 °F 70% 29.88 in 10.0 mi SW 3.5 mph - N/A   Overcast
4:35 AM -11.2 °F -24.8 °F -18.4 °F 70% 29.86 in 10.0 mi SSW 5.8 mph - N/A   Mostly Cloudy
4:54 AM -11.2 °F -27.8 °F -18.4 °F 70% 29.84 in 10.0 mi SSW 8.1 mph - N/A   Overcast
5:15 AM -11.2 °F -27.8 °F -18.4 °F 70% 29.81 in 10.0 mi SSW 8.1 mph - N/A   Overcast
5:35 AM -11.2 °F -27.8 °F -18.4 °F 70% 29.79 in 10.0 mi SSW 8.1 mph - N/A   Overcast
5:55 AM -11.2 °F -27.8 °F -18.4 °F 70% 29.77 in 10.0 mi SW 8.1 mph - N/A   Overcast
6:15 AM -11.2 °F -29.0 °F -18.4 °F 70% 29.75 in 10.0 mi SW 9.2 mph - N/A   Mostly Cloudy
6:35 AM -11.2 °F -29.0 °F -18.4 °F 70% 29.72 in 10.0 mi SW 9.2 mph - N/A   Scattered Clouds
6:55 AM -9.4 °F -26.8 °F -18.4 °F 65% 29.70 in 10.0 mi SW 9.2 mph 18.4 mph N/A   Mostly Cloudy
7:15 AM -7.6 °F -27.5 °F -16.6 °F 65% 29.68 in 10.0 mi SW 12.7 mph 19.6 mph N/A   Mostly Cloudy
7:34 AM -7.6 °F -29.1 °F -14.8 °F 71% 29.65 in 10.0 mi SW 15.0 mph 19.6 mph N/A   Scattered Clouds
7:55 AM -7.6 °F -26.6 °F -14.8 °F 71% 29.62 in 10.0 mi SW 11.5 mph 16.1 mph N/A   Scattered Clouds
8:15 AM -5.8 °F -26.8 °F -14.8 °F 65% 29.59 in 10.0 mi SW 15.0 mph 21.9 mph N/A   Scattered Clouds
8:34 AM -5.8 °F -26.8 °F -13.0 °F 71% 29.57 in 10.0 mi SW 15.0 mph 23.0 mph N/A   Scattered Clouds
8:55 AM -2.2 °F -19.9 °F -11.2 °F 66% 29.57 in 10.0 mi WSW 11.5 mph 18.4 mph N/A   Clear
9:15 AM -2.2 °F -18.9 °F -11.2 °F 66% 29.56 in 10.0 mi WSW 10.4 mph 19.6 mph N/A   Scattered Clouds
9:34 AM -2.2 °F -18.9 °F -9.4 °F 71% 29.55 in 1.0 mi WSW 10.4 mph 18.4 mph N/A Snow Light Snow
9:55 AM -0.4 °F -17.6 °F -7.6 °F 72% 29.52 in 2.0 mi SW 11.5 mph - N/A Snow Light Snow
10:14 AM -0.4 °F -16.7 °F -7.6 °F 72% 29.52 in 2.0 mi WSW 10.4 mph 16.1 mph N/A Snow Light Snow
10:35 AM 1.4 °F -17.6 °F -5.8 °F 72% 29.50 in 1.8 mi West 15.0 mph 20.7 mph N/A Snow Light Snow
10:55 AM 3.2 °F -14.6 °F -5.8 °F 66% 29.49 in 1.5 mi WSW 13.8 mph 20.7 mph N/A Snow Light Snow
11:14 AM 3.2 °F -13.9 °F -4.0 °F 72% 29.48 in 1.8 mi West 12.7 mph 18.4 mph N/A Snow Light Snow
11:35 AM 3.2 °F -13.9 °F -2.2 °F 78% 29.47 in 1.2 mi West 12.7 mph - N/A Snow Light Snow
11:55 AM 5.0 °F -12.3 °F -2.2 °F 72% 29.47 in 1.0 mi West 13.8 mph - N/A   Haze
12:14 PM 5.0 °F -13.6 °F -2.2 °F 72% 29.46 in 0.5 mi West 16.1 mph 21.9 mph N/A Snow Light Snow
12:35 PM 5.0 °F -13.6 °F -2.2 °F 72% 29.45 in 1.2 mi West 16.1 mph 23.0 mph N/A   Haze
12:55 PM 6.8 °F -11.3 °F -0.4 °F 72% 29.45 in 1.0 mi West 16.1 mph 21.9 mph N/A   Haze
1:14 PM 6.8 °F -11.8 °F -0.4 °F 72% 29.44 in 0.8 mi West 17.3 mph 26.5 mph N/A   Haze
1:35 PM 8.6 °F -10.0 °F -2.2 °F 62% 29.43 in 1.0 mi West 18.4 mph 26.5 mph N/A Snow Light Snow
1:55 PM 6.8 °F -11.3 °F -0.4 °F 72% 29.43 in 0.8 mi WNW 16.1 mph 24.2 mph N/A Snow Light Snow
2:14 PM 8.6 °F -8.3 °F -2.2 °F 62% 29.43 in 1.0 mi WNW 15.0 mph 21.9 mph N/A   Haze
2:35 PM 6.8 °F -10.7 °F -2.2 °F 67% 29.44 in 0.8 mi WNW 15.0 mph 29.9 mph N/A Snow Light Snow
2:55 PM 6.8 °F -13.8 °F -4.0 °F 61% 29.45 in 1.0 mi WNW 21.9 mph 28.8 mph N/A Snow Light Snow
3:15 PM 6.8 °F -11.8 °F -5.8 °F 56% 29.45 in 1.8 mi WNW 17.3 mph 29.9 mph N/A Snow Light Snow
3:35 PM 6.8 °F -9.3 °F -5.8 °F 56% 29.46 in 1.8 mi WNW 12.7 mph 26.5 mph N/A Snow Light Snow
3:54 PM 3.2 °F -17.6 °F -5.8 °F 66% 29.48 in 1.2 mi NW 19.6 mph 31.1 mph N/A Snow Light Snow
4:15 PM 3.2 °F -15.3 °F -7.6 °F 61% 29.48 in 1.0 mi WNW 15.0 mph 32.2 mph N/A Snow Light Snow
4:35 PM 3.2 °F -18.1 °F -7.6 °F 61% 29.50 in 0.8 mi WNW 20.7 mph 33.4 mph N/A Snow Light Snow
4:54 PM 1.4 °F -18.8 °F -11.2 °F 56% 29.52 in 3.0 mi WNW 17.3 mph 29.9 mph N/A Snow Light Snow
5:15 PM 1.4 °F -18.8 °F -14.8 °F 47% 29.54 in 2.5 mi NW 17.3 mph 27.6 mph N/A Snow Light Snow
5:35 PM -0.4 °F -20.5 °F -9.4 °F 66% 29.55 in 3.0 mi WNW 16.1 mph 20.7 mph N/A Snow Light Snow
5:54 PM -0.4 °F -22.8 °F -14.8 °F 51% 29.57 in 1.2 mi WNW 20.7 mph 31.1 mph N/A Snow Light Snow
6:15 PM -2.2 °F -19.9 °F -14.8 °F 55% 29.59 in 5.0 mi WNW 11.5 mph 27.6 mph N/A   Haze
6:35 PM -2.2 °F -21.5 °F -14.8 °F 55% 29.60 in 10.0 mi NW 13.8 mph 21.9 mph N/A   Overcast
6:55 PM -2.2 °F -24.1 °F -13.0 °F 60% 29.62 in 4.0 mi NW 18.4 mph 26.5 mph N/A   Haze
7:15 PM -4.0 °F -25.8 °F -13.0 °F 65% 29.63 in 3.0 mi WNW 17.3 mph 28.8 mph N/A   Haze
7:35 PM -4.0 °F -25.2 °F -14.8 °F 60% 29.65 in 7.0 mi WNW 16.1 mph 25.3 mph N/A   Overcast
7:55 PM -5.8 °F -27.5 °F -14.8 °F 65% 29.67 in 7.0 mi WNW 16.1 mph 28.8 mph N/A   Overcast
8:15 PM -5.8 °F -26.8 °F -14.8 °F 65% 29.68 in 3.0 mi WNW 15.0 mph 26.5 mph N/A Snow Light Snow
8:34 PM -7.6 °F -27.5 °F -14.8 °F 71% 29.70 in 3.0 mi WNW 12.7 mph 18.4 mph N/A Snow Light Snow
8:55 PM -7.6 °F -27.5 °F -13.0 °F 77% 29.71 in 1.0 mi NW 12.7 mph 19.6 mph N/A Snow Light Snow
9:15 PM -7.6 °F -25.7 °F -13.0 °F 77% 29.73 in 1.0 mi WNW 10.4 mph 18.4 mph N/A Snow Light Snow
9:35 PM -7.6 °F -26.6 °F -14.8 °F 71% 29.74 in 1.0 mi WNW 11.5 mph 20.7 mph N/A Snow Light Snow
9:55 PM -7.6 °F -28.3 °F -16.6 °F 65% 29.76 in 4.0 mi NW 13.8 mph 19.6 mph N/A Snow Light Snow
10:14 PM -9.4 °F -30.6 °F -18.4 °F 65% 29.78 in 5.0 mi NW 13.8 mph 21.9 mph N/A   Haze
10:35 PM -9.4 °F -26.8 °F -16.6 °F 71% 29.79 in 4.0 mi NW 9.2 mph 18.4 mph N/A   Haze
10:55 PM -11.2 °F -26.4 °F -18.4 °F 70% 29.81 in 10.0 mi NW 6.9 mph - N/A   Scattered Clouds
11:15 PM -11.2 °F -29.0 °F -20.2 °F 64% 29.82 in 10.0 mi NW 9.2 mph 17.3 mph N/A   Clear
11:35 PM -11.2 °F -29.0 °F -23.8 °F 54% 29.83 in 10.0 mi NW 9.2 mph 17.3 mph N/A   Clear
11:55 PM -13.0 °F -31.3 °F -22.0 °F 64% 29.84 in 10.0 mi NW 9.2 mph - N/A   Clear